| time (UTC) | temp F | wind direction | speed knots | gust knots | rain 1hr in | rain 24hr in | rain mn in | humidity % | barometer mb |
| 20260831002006 | 77 | 166 | 3.5 | 6.1 | 0.00 | 0.00 | 0.00 | 76 | 1006.6 |
| 20260831001006 | 78 | 156 | 3.5 | 7.8 | 0.00 | 0.00 | 0.00 | 75 | 1006.5 |
| 20260831000506 | 78 | 180 | 2.6 | 5.2 | 0.00 | 0.00 | 0.00 | 75 | 1006.6 |
| 20260830235006 | 78 | 173 | 3.5 | 7.0 | 0.00 | 0.00 | 0.00 | 74 | 1006.4 |
| 20260830234006 | 78 | 172 | 4.3 | 8.7 | 0.00 | 0.00 | 0.00 | 73 | 1006.5 |
| 20260830233506 | 79 | 153 | 4.3 | 7.8 | 0.00 | 0.00 | 0.00 | 73 | 1006.5 |
| 20260830233006 | 79 | 173 | 4.3 | 7.0 | 0.00 | 0.00 | 0.00 | 72 | 1006.5 |
| 20260830232506 | 79 | 171 | 4.3 | 8.7 | 0.00 | 0.00 | 0.00 | 71 | 1006.5 |
| 20260830230506 | 80 | 166 | 4.3 | 7.0 | 0.00 | 0.00 | 0.00 | 69 | 1006.4 |
| 20260830225506 | 80 | 173 | 3.5 | 10.4 | 0.00 | 0.00 | 0.00 | 68 | 1006.2 |
| 20260830225006 | 81 | 168 | 3.5 | 7.8 | 0.00 | 0.00 | 0.00 | 68 | 1006.0 |
| 20260830224006 | 81 | 159 | 1.7 | 7.0 | 0.00 | 0.00 | 0.00 | 70 | 1006.0 |
| 20260830223506 | 81 | 172 | 2.6 | 6.1 | 0.00 | 0.00 | 0.00 | 70 | 1006.0 |
| 20260830223007 | 81 | 172 | 2.6 | 6.1 | 0.00 | 0.00 | 0.00 | 69 | 1006.0 |
| 20260830222506 | 81 | 177 | 5.2 | 7.0 | 0.00 | 0.00 | 0.00 | 69 | 1005.9 |
| 20260830222006 | 82 | 166 | 1.7 | 4.3 | 0.00 | 0.00 | 0.00 | 72 | 1005.9 |
| 20260830221506 | 82 | 175 | 2.6 | 7.8 | 0.00 | 0.00 | 0.00 | 70 | 1006.0 |
| 20260830221006 | 82 | 166 | 2.6 | 7.0 | 0.00 | 0.00 | 0.00 | 71 | 1005.8 |
| 20260830220506 | 82 | 166 | 3.5 | 6.1 | 0.00 | 0.00 | 0.00 | 70 | 1005.8 |
| 20260830220006 | 82 | 157 | 2.6 | 6.1 | 0.00 | 0.00 | 0.00 | 70 | 1005.8 |
| 20260830215506 | 82 | 184 | 2.6 | 5.2 | 0.00 | 0.00 | 0.00 | 70 | 1005.8 |
| 20260830215007 | 82 | 172 | 2.6 | 5.2 | 0.00 | 0.00 | 0.00 | 69 | 1005.9 |
| 20260830214006 | 82 | 171 | 4.3 | 7.8 | 0.00 | 0.00 | 0.00 | 67 | 1005.8 |
| 20260830213006 | 82 | 172 | 4.3 | 6.1 | 0.00 | 0.00 | 0.00 | 69 | 1005.7 |
| 20260830212506 | 82 | 175 | 3.5 | 5.2 | 0.00 | 0.00 | 0.00 | 67 | 1005.7 |
| 20260830212006 | 82 | 171 | 3.5 | 7.0 | 0.00 | 0.00 | 0.00 | 67 | 1005.7 |
| 20260830211006 | 83 | 177 | 2.6 | 7.8 | 0.00 | 0.00 | 0.00 | 68 | 1005.6 |
| 20260830210506 | 83 | 169 | 4.3 | 10.4 | 0.00 | 0.00 | 0.00 | 66 | 1005.5 |
| 20260830210006 | 84 | 148 | 4.3 | 7.8 | 0.00 | 0.00 | 0.00 | 65 | 1005.6 |
| 20260830205506 | 84 | 159 | 1.7 | 6.1 | 0.00 | 0.00 | 0.00 | 68 | 1005.7 |
| 20260830204506 | 84 | 156 | 2.6 | 7.0 | 0.00 | 0.00 | 0.00 | 67 | 1005.8 |
| 20260830203006 | 84 | 163 | 1.7 | 4.3 | 0.00 | 0.00 | 0.00 | 68 | 1005.3 |
| 20260830202505 | 84 | 173 | 4.3 | 6.1 | 0.00 | 0.00 | 0.00 | 67 | 1005.5 |
| 20260830202006 | 84 | 169 | 1.7 | 6.1 | 0.00 | 0.00 | 0.00 | 69 | 1005.6 |
| 20260830201006 | 84 | 172 | 2.6 | 6.1 | 0.00 | 0.00 | 0.00 | 70 | 1006.0 |
| 20260830200506 | 84 | 167 | 2.6 | 6.1 | 0.00 | 0.00 | 0.00 | 69 | 1006.1 |
| 20260830200006 | 84 | 192 | 2.6 | 7.8 | 0.00 | 0.00 | 0.00 | 70 | 1006.2 |
| 20260830195506 | 84 | 167 | 2.6 | 7.0 | 0.00 | 0.00 | 0.00 | 68 | 1006.2 |
| 20260830195009 | 84 | 167 | 2.6 | 7.0 | 0.00 | 0.00 | 0.00 | 69 | 1006.1 |
| 20260830193007 | 84 | 164 | 1.7 | 5.2 | 0.00 | 0.00 | 0.00 | 70 | 1006.0 |
| 20260830192506 | 84 | 145 | 1.7 | 5.2 | 0.00 | 0.00 | 0.00 | 71 | 1006.0 |
| 20260830192006 | 84 | 169 | 1.7 | 5.2 | 0.00 | 0.00 | 0.00 | 70 | 1006.1 |
| 20260830191506 | 84 | 155 | 1.7 | 4.3 | 0.00 | 0.00 | 0.00 | 69 | 1006.1 |
| 20260830191005 | 85 | 155 | 0.9 | 2.6 | 0.00 | 0.00 | 0.00 | 67 | 1006.0 |
| 20260830190506 | 85 | 155 | 2.6 | 6.1 | 0.00 | 0.00 | 0.00 | 65 | 1006.0 |
| 20260830185506 | 87 | 172 | 2.6 | 6.1 | 0.00 | 0.00 | 0.00 | 61 | 1006.0 |
| 20260830185006 | 88 | 172 | 2.6 | 5.2 | 0.00 | 0.00 | 0.00 | 60 | 1005.8 |
| 20260830184506 | 89 | 160 | 1.7 | 4.3 | 0.00 | 0.00 | 0.00 | 61 | 1005.7 |
| 20260830184006 | 89 | 171 | 0.9 | 4.3 | 0.00 | 0.00 | 0.00 | 62 | 1005.7 |
| 20260830183506 | 89 | 158 | 1.7 | 4.3 | 0.00 | 0.00 | 0.00 | 60 | 1005.7 |
| 20260830183007 | 89 | 171 | 0.9 | 4.3 | 0.00 | 0.00 | 0.00 | 62 | 1005.7 |
| 20260830182506 | 88 | 171 | 0.9 | 4.3 | 0.00 | 0.00 | 0.00 | 62 | 1005.7 |
| 20260830182006 | 88 | 173 | 0.9 | 2.6 | 0.00 | 0.00 | 0.00 | 63 | 1005.8 |
| 20260830181506 | 88 | 179 | 0.9 | 2.6 | 0.00 | 0.00 | 0.00 | 62 | 1005.8 |
| 20260830181006 | 87 | 186 | 1.7 | 2.6 | 0.00 | 0.00 | 0.00 | 64 | 1005.8 |
| 20260830180506 | 86 | 186 | 0.9 | 2.6 | 0.00 | 0.00 | 0.00 | 66 | 1005.8 |
| 20260830180006 | 86 | 169 | 0.9 | 2.6 | 0.00 | 0.00 | 0.00 | 65 | 1005.7 |
| 20260830175007 | 84 | 167 | 0.0 | 2.6 | 0.00 | 0.00 | 0.00 | 68 | 1006.0 |
| 20260830174506 | 83 | 167 | 0.0 | 2.6 | 0.00 | 0.00 | 0.00 | 72 | 1006.2 |
| 20260830173506 | 81 | 167 | 0.9 | 2.6 | 0.00 | 0.00 | 0.00 | 77 | 1006.4 |
| 20260830173007 | 80 | 167 | 0.0 | 0.9 | 0.00 | 0.00 | 0.00 | 77 | 1006.5 |
| 20260830172506 | 79 | 167 | 0.9 | 2.6 | 0.00 | 0.00 | 0.00 | 77 | 1006.6 |
| 20260830172006 | 79 | 167 | 1.7 | 2.6 | 0.00 | 0.00 | 0.00 | 77 | 1006.8 |
| 20260830171506 | 79 | 168 | 1.7 | 4.3 | 0.00 | 0.00 | 0.00 | 77 | 1006.9 |
| 20260830171006 | 79 | 164 | 0.9 | 4.3 | 0.00 | 0.00 | 0.00 | 77 | 1007.0 |
| 20260830170505 | 79 | 166 | 2.6 | 5.2 | 0.00 | 0.00 | 0.00 | 76 | 1007.2 |
| 20260830170006 | 79 | 166 | 2.6 | 8.7 | 0.00 | 0.00 | 0.00 | 75 | 1007.4 |
| 20260830165506 | 80 | 165 | 1.7 | 5.2 | 0.00 | 0.00 | 0.00 | 75 | 1007.3 |
| 20260830165006 | 80 | 175 | 2.6 | 5.2 | 0.00 | 0.00 | 0.00 | 74 | 1007.4 |
| 20260830164506 | 81 | 162 | 1.7 | 6.1 | 0.00 | 0.00 | 0.00 | 73 | 1007.3 |
| 20260830164006 | 81 | 169 | 3.5 | 6.1 | 0.00 | 0.00 | 0.00 | 72 | 1007.3 |
| 20260830163006 | 82 | 159 | 1.7 | 5.2 | 0.00 | 0.00 | 0.00 | 72 | 1007.3 |
| 20260830162505 | 83 | 151 | 0.9 | 2.6 | 0.00 | 0.00 | 0.00 | 71 | 1007.2 |
| 20260830162006 | 83 | 143 | 0.9 | 2.6 | 0.00 | 0.00 | 0.00 | 70 | 1006.9 |
| 20260830161506 | 84 | 144 | 1.7 | 2.6 | 0.00 | 0.00 | 0.00 | 70 | 1006.8 |
| 20260830161006 | 84 | 141 | 0.9 | 2.6 | 0.00 | 0.00 | 0.00 | 69 | 1006.6 |
| 20260830160506 | 83 | 141 | 1.7 | 2.6 | 0.00 | 0.00 | 0.00 | 70 | 1006.5 |
| 20260830160006 | 83 | 140 | 0.9 | 2.6 | 0.00 | 0.00 | 0.00 | 71 | 1006.5 |
| 20260830155506 | 83 | 138 | 0.9 | 2.6 | 0.00 | 0.00 | 0.00 | 72 | 1006.4 |
| 20260830155006 | 82 | 136 | 0.0 | 2.6 | 0.00 | 0.00 | 0.00 | 72 | 1006.2 |
| 20260830154506 | 82 | 136 | 0.9 | 2.6 | 0.00 | 0.00 | 0.00 | 73 | 1006.2 |
| 20260830154006 | 81 | 136 | 0.0 | 1.7 | 0.00 | 0.00 | 0.00 | 74 | 1006.1 |
| 20260830153506 | 81 | 136 | 0.9 | 2.6 | 0.00 | 0.00 | 0.00 | 74 | 1006.1 |
| 20260830153006 | 80 | 128 | 0.0 | 1.7 | 0.00 | 0.00 | 0.00 | 75 | 1006.1 |
| 20260830152506 | 80 | 128 | 0.0 | 1.7 | 0.00 | 0.00 | 0.00 | 78 | 1006.1 |
| 20260830152006 | 79 | 128 | 0.9 | 2.6 | 0.00 | 0.00 | 0.00 | 78 | 1006.2 |
| 20260830151006 | 78 | 126 | 0.9 | 2.6 | 0.00 | 0.00 | 0.00 | 79 | 1006.0 |
| 20260830150506 | 78 | 126 | 0.0 | 1.7 | 0.00 | 0.00 | 0.00 | 81 | 1005.9 |
| 20260830150006 | 77 | 126 | 0.9 | 2.6 | 0.00 | 0.00 | 0.00 | 80 | 1005.9 |
| 20260830145506 | 77 | 119 | 0.0 | 0.9 | 0.00 | 0.00 | 0.00 | 83 | 1006.0 |
| 20260830145006 | 76 | 119 | 0.9 | 1.7 | 0.00 | 0.00 | 0.00 | 83 | 1006.0 |
| 20260830144505 | 76 | 119 | 0.9 | 1.7 | 0.00 | 0.00 | 0.00 | 84 | 1006.0 |
| 20260830144006 | 75 | 119 | 0.0 | 1.7 | 0.00 | 0.00 | 0.00 | 84 | 1006.0 |
| 20260830143506 | 75 | 119 | 0.9 | 1.7 | 0.00 | 0.00 | 0.00 | 84 | 1006.1 |
| 20260830143006 | 75 | 119 | 0.0 | 0.0 | 0.00 | 0.00 | 0.00 | 84 | 1006.0 |
| 20260830142506 | 74 | 119 | 0.0 | 0.0 | 0.00 | 0.00 | 0.00 | 85 | 1005.9 |
| 20260830142006 | 74 | 119 | 0.0 | 0.9 | 0.00 | 0.00 | 0.00 | 85 | 1006.1 |
| 20260830141505 | 74 | 119 | 0.9 | 2.6 | 0.00 | 0.00 | 0.00 | 86 | 1006.0 |
| 20260830141006 | 73 | 116 | 0.9 | 2.6 | 0.00 | 0.00 | 0.00 | 87 | 1006.0 |
| 20260830140506 | 73 | 111 | 0.9 | 1.7 | 0.00 | 0.00 | 0.00 | 87 | 1006.0 |
| 20260830140005 | 73 | 111 | 0.9 | 1.7 | 0.00 | 0.00 | 0.00 | 88 | 1006.1 |
| 20260830135506 | 73 | 111 | 0.0 | 1.7 | 0.00 | 0.00 | 0.00 | 89 | 1006.2 |
| 20260830135006 | 72 | 111 | 0.0 | 1.7 | 0.00 | 0.00 | 0.00 | 89 | 1006.2 |
| 20260830134506 | 72 | 107 | 0.0 | 1.7 | 0.00 | 0.00 | 0.00 | 90 | 1006.1 |
| 20260830134006 | 71 | 107 | 0.0 | 1.7 | 0.00 | 0.00 | 0.00 | 90 | 1006.1 |
| 20260830133506 | 71 | 105 | 0.9 | 2.6 | 0.00 | 0.00 | 0.00 | 90 | 1006.1 |
| 20260830132006 | 71 | 165 | 0.9 | 1.7 | 0.00 | 0.00 | 0.00 | 91 | 1006.1 |
| 20260830131505 | 70 | 165 | 0.9 | 4.3 | 0.00 | 0.00 | 0.00 | 91 | 1006.1 |
| 20260830130505 | 70 | 165 | 0.9 | 1.7 | 0.00 | 0.00 | 0.00 | 92 | 1006.2 |
| 20260830130005 | 70 | 165 | 0.9 | 2.6 | 0.00 | 0.00 | 0.00 | 92 | 1006.1 |
| 20260830125515 | 69 | 165 | 0.9 | 1.7 | 0.00 | 0.00 | 0.00 | 92 | 1006.2 |
| 20260830125006 | 69 | 165 | 0.0 | 1.7 | 0.00 | 0.00 | 0.00 | 92 | 1006.2 |
| 20260830124506 | 69 | 165 | 0.9 | 2.6 | 0.00 | 0.00 | 0.00 | 92 | 1006.2 |
| 20260830124006 | 69 | 165 | 0.9 | 1.7 | 0.00 | 0.01 | 0.00 | 92 | 1006.2 |
| 20260830123506 | 69 | 165 | 0.9 | 2.6 | 0.00 | 0.02 | 0.00 | 92 | 1006.3 |
| 20260830123006 | 69 | 165 | 0.9 | 2.6 | 0.00 | 0.02 | 0.00 | 92 | 1006.3 |
| 20260830122506 | 69 | 165 | 0.9 | 4.3 | 0.00 | 0.03 | 0.00 | 92 | 1006.1 |
| 20260830122006 | 69 | 165 | 0.9 | 2.6 | 0.00 | 0.04 | 0.00 | 92 | 1006.0 |
| 20260830121506 | 68 | 165 | 0.9 | 2.6 | 0.00 | 0.04 | 0.00 | 92 | 1005.8 |
| 20260830121006 | 68 | 165 | 0.0 | 2.6 | 0.00 | 0.05 | 0.00 | 92 | 1005.9 |
| 20260830120006 | 68 | 165 | 0.9 | 1.7 | 0.00 | 0.06 | 0.00 | 92 | 1005.8 |
| 20260830115506 | 68 | 165 | 0.9 | 1.7 | 0.00 | 0.06 | 0.00 | 92 | 1005.9 |
| 20260830114505 | 68 | 165 | 1.7 | 2.6 | 0.00 | 0.08 | 0.00 | 91 | 1005.9 |
| 20260830114006 | 68 | 165 | 1.7 | 4.3 | 0.00 | 0.09 | 0.00 | 91 | 1005.8 |
| 20260830112006 | 69 | 157 | 0.9 | 1.7 | 0.00 | 0.12 | 0.00 | 91 | 1005.9 |
| 20260830111506 | 69 | 157 | 0.0 | 0.9 | 0.00 | 0.13 | 0.00 | 91 | 1005.9 |
| 20260830111006 | 69 | 157 | 0.0 | 2.6 | 0.00 | 0.14 | 0.00 | 91 | 1006.0 |
| 20260830110506 | 69 | 157 | 0.9 | 1.7 | 0.00 | 0.16 | 0.00 | 91 | 1006.0 |
| 20260830110006 | 69 | 157 | 0.9 | 2.6 | 0.00 | 0.17 | 0.00 | 91 | 1005.9 |
| 20260830105506 | 69 | 157 | 0.0 | 1.7 | 0.00 | 0.18 | 0.00 | 91 | 1006.0 |
| 20260830105006 | 69 | 157 | 0.9 | 1.7 | 0.00 | 0.19 | 0.00 | 91 | 1006.0 |
| 20260830104505 | 69 | 157 | 1.7 | 2.6 | 0.00 | 0.20 | 0.00 | 91 | 1006.3 |
| 20260830103006 | 69 | 164 | 1.7 | 2.6 | 0.00 | 0.23 | 0.00 | 91 | 1006.1 |
| 20260830102506 | 69 | 164 | 1.7 | 2.6 | 0.00 | 0.24 | 0.00 | 91 | 1006.1 |
| 20260830102006 | 69 | 164 | 1.7 | 2.6 | 0.00 | 0.25 | 0.00 | 91 | 1006.1 |
| 20260830101506 | 69 | 164 | 1.7 | 5.2 | 0.00 | 0.26 | 0.00 | 91 | 1006.1 |
| 20260830101006 | 69 | 159 | 1.7 | 4.3 | 0.00 | 0.27 | 0.00 | 91 | 1006.2 |
| 20260830100006 | 69 | 162 | 1.7 | 6.1 | 0.00 | 0.30 | 0.00 | 91 | 1006.2 |
| 20260830095505 | 69 | 167 | 1.7 | 6.1 | 0.00 | 0.31 | 0.00 | 91 | 1006.2 |
| 20260830095006 | 69 | 166 | 1.7 | 6.1 | 0.00 | 0.32 | 0.00 | 91 | 1006.1 |
| 20260830094007 | 69 | 169 | 1.7 | 4.3 | 0.00 | 0.33 | 0.00 | 91 | 1006.1 |
| 20260830093506 | 69 | 163 | 1.7 | 2.6 | 0.00 | 0.34 | 0.00 | 91 | 1006.1 |
| 20260830093006 | 69 | 163 | 0.9 | 4.3 | 0.00 | 0.34 | 0.00 | 91 | 1006.1 |
| 20260830092505 | 70 | 161 | 0.9 | 2.6 | 0.00 | 0.34 | 0.00 | 91 | 1006.1 |
| 20260830092006 | 70 | 161 | 1.7 | 5.2 | 0.00 | 0.34 | 0.00 | 91 | 1006.3 |
| 20260830091506 | 70 | 157 | 0.9 | 2.6 | 0.00 | 0.35 | 0.00 | 91 | 1006.2 |
| 20260830090506 | 70 | 155 | 0.9 | 4.3 | 0.00 | 0.35 | 0.00 | 91 | 1006.1 |
| 20260830090005 | 70 | 153 | 0.9 | 2.6 | 0.00 | 0.35 | 0.00 | 91 | 1006.0 |
| 20260830085505 | 70 | 153 | 0.9 | 2.6 | 0.00 | 0.35 | 0.00 | 91 | 1006.1 |
| 20260830085006 | 70 | 153 | 0.9 | 2.6 | 0.00 | 0.35 | 0.00 | 91 | 1006.2 |
| 20260830084506 | 70 | 154 | 1.7 | 4.3 | 0.00 | 0.35 | 0.00 | 91 | 1006.2 |
| 20260830083506 | 70 | 165 | 1.7 | 2.6 | 0.00 | 0.35 | 0.00 | 91 | 1006.3 |
| 20260830082506 | 70 | 165 | 1.7 | 4.3 | 0.00 | 0.35 | 0.00 | 91 | 1006.5 |
| 20260830082006 | 70 | 155 | 0.9 | 2.6 | 0.00 | 0.35 | 0.00 | 91 | 1006.5 |
| 20260830081506 | 70 | 155 | 0.9 | 2.6 | 0.00 | 0.35 | 0.00 | 91 | 1006.6 |
| 20260830081006 | 70 | 155 | 0.9 | 2.6 | 0.00 | 0.35 | 0.00 | 91 | 1006.5 |
| 20260830080506 | 70 | 155 | 0.9 | 2.6 | 0.00 | 0.35 | 0.00 | 91 | 1006.4 |
| 20260830080005 | 70 | 155 | 0.9 | 2.6 | 0.00 | 0.35 | 0.00 | 91 | 1006.3 |
| 20260830075506 | 70 | 155 | 0.9 | 2.6 | 0.00 | 0.35 | 0.00 | 91 | 1006.4 |
| 20260830075006 | 69 | 154 | 0.9 | 1.7 | 0.00 | 0.35 | 0.00 | 91 | 1006.5 |
| 20260830074505 | 69 | 155 | 0.9 | 4.3 | 0.00 | 0.35 | 0.00 | 91 | 1006.5 |
| 20260830074006 | 69 | 170 | 1.7 | 4.3 | 0.00 | 0.35 | 0.00 | 91 | 1006.6 |
| 20260830073506 | 69 | 170 | 0.0 | 1.7 | 0.00 | 0.35 | 0.00 | 91 | 1006.5 |
| 20260830073006 | 69 | 170 | 0.9 | 2.6 | 0.00 | 0.35 | 0.00 | 91 | 1006.6 |
| 20260830072506 | 69 | 171 | 0.9 | 2.6 | 0.00 | 0.35 | 0.00 | 90 | 1006.5 |
| 20260830072006 | 69 | 171 | 0.9 | 2.6 | 0.00 | 0.35 | 0.00 | 90 | 1006.6 |
| 20260830071505 | 69 | 172 | 0.9 | 4.3 | 0.00 | 0.35 | 0.00 | 90 | 1006.6 |
| 20260830071006 | 70 | 172 | 0.9 | 4.3 | 0.00 | 0.35 | 0.00 | 90 | 1006.6 |
| 20260830065506 | 70 | 183 | 0.9 | 2.6 | 0.00 | 0.35 | 0.00 | 90 | 1006.7 |
| 20260830065007 | 70 | 184 | 1.7 | 2.6 | 0.00 | 0.35 | 0.00 | 90 | 1006.7 |
| 20260830064505 | 70 | 170 | 1.7 | 4.3 | 0.00 | 0.35 | 0.00 | 90 | 1006.7 |
| 20260830063505 | 70 | 165 | 0.9 | 2.6 | 0.00 | 0.35 | 0.00 | 90 | 1006.9 |
| 20260830063006 | 70 | 170 | 0.9 | 2.6 | 0.00 | 0.35 | 0.00 | 90 | 1007.0 |
| 20260830062506 | 70 | 170 | 0.9 | 4.3 | 0.00 | 0.35 | 0.00 | 90 | 1007.1 |
| 20260830062006 | 70 | 171 | 1.7 | 4.3 | 0.00 | 0.35 | 0.00 | 89 | 1007.1 |
| 20260830061006 | 70 | 170 | 1.7 | 4.3 | 0.00 | 0.35 | 0.00 | 89 | 1007.2 |
| 20260830055505 | 70 | 157 | 1.7 | 5.2 | 0.00 | 0.35 | 0.00 | 89 | 1007.3 |
| 20260830055006 | 70 | 145 | 1.7 | 4.3 | 0.00 | 0.35 | 0.00 | 88 | 1007.3 |
| 20260830054506 | 70 | 176 | 0.9 | 5.2 | 0.00 | 0.35 | 0.00 | 88 | 1007.3 |
| 20260830054006 | 70 | 163 | 1.7 | 4.3 | 0.00 | 0.35 | 0.00 | 88 | 1007.4 |
| 20260830053506 | 70 | 163 | 1.7 | 5.2 | 0.00 | 0.35 | 0.00 | 88 | 1007.4 |
| 20260830053006 | 70 | 163 | 1.7 | 5.2 | 0.00 | 0.35 | 0.00 | 88 | 1007.5 |
| 20260830052506 | 71 | 170 | 1.7 | 6.1 | 0.00 | 0.35 | 0.00 | 88 | 1007.5 |
| 20260830052006 | 71 | 170 | 1.7 | 2.6 | 0.00 | 0.35 | 0.00 | 88 | 1007.5 |
| 20260830051505 | 71 | 170 | 1.7 | 6.1 | 0.00 | 0.35 | 0.00 | 87 | 1007.6 |
| 20260830051005 | 71 | 170 | 0.9 | 2.6 | 0.00 | 0.35 | 0.00 | 87 | 1007.6 |
| 20260830050006 | 71 | 153 | 0.9 | 4.3 | 0.00 | 0.35 | 0.00 | 87 | 1007.7 |
| 20260830045505 | 71 | 160 | 0.0 | 4.3 | 0.00 | 0.35 | 0.35 | 87 | 1007.7 |
| 20260830045006 | 71 | 160 | 1.7 | 4.3 | 0.00 | 0.35 | 0.35 | 87 | 1007.7 |
| 20260830044506 | 71 | 163 | 1.7 | 2.6 | 0.00 | 0.35 | 0.35 | 87 | 1007.7 |
| 20260830044006 | 71 | 163 | 0.9 | 4.3 | 0.00 | 0.35 | 0.35 | 87 | 1007.7 |
| 20260830043006 | 71 | 159 | 0.9 | 4.3 | 0.00 | 0.35 | 0.35 | 86 | 1007.9 |
| 20260830042505 | 71 | 157 | 0.9 | 5.2 | 0.00 | 0.35 | 0.35 | 86 | 1008.0 |
| 20260830041506 | 71 | 162 | 0.9 | 1.7 | 0.00 | 0.35 | 0.35 | 86 | 1008.1 |
| 20260830041006 | 71 | 162 | 1.7 | 4.3 | 0.00 | 0.35 | 0.35 | 86 | 1008.1 |
| 20260830040505 | 71 | 161 | 1.7 | 6.1 | 0.00 | 0.35 | 0.35 | 86 | 1008.0 |
| 20260830040005 | 71 | 177 | 1.7 | 4.3 | 0.00 | 0.35 | 0.35 | 86 | 1008.0 |
| 20260830035506 | 71 | 165 | 1.7 | 4.3 | 0.00 | 0.35 | 0.35 | 85 | 1008.0 |
| 20260830034506 | 71 | 169 | 0.9 | 4.3 | 0.00 | 0.35 | 0.35 | 85 | 1008.1 |
| 20260830033505 | 71 | 157 | 1.7 | 6.1 | 0.00 | 0.35 | 0.35 | 85 | 1008.0 |
| 20260830033006 | 71 | 168 | 2.6 | 4.3 | 0.00 | 0.35 | 0.35 | 85 | 1008.0 |
| 20260830032505 | 71 | 158 | 1.7 | 4.3 | 0.00 | 0.35 | 0.35 | 84 | 1007.9 |
| 20260830032006 | 71 | 158 | 1.7 | 6.1 | 0.00 | 0.35 | 0.35 | 84 | 1007.8 |
| 20260830031506 | 71 | 173 | 1.7 | 6.1 | 0.00 | 0.35 | 0.35 | 84 | 1007.8 |
| 20260830031006 | 71 | 150 | 1.7 | 5.2 | 0.00 | 0.35 | 0.35 | 84 | 1007.8 |
| 20260830030506 | 72 | 149 | 0.9 | 2.6 | 0.00 | 0.35 | 0.35 | 84 | 1007.8 |
| 20260830030005 | 72 | 168 | 1.7 | 4.3 | 0.00 | 0.35 | 0.35 | 84 | 1007.9 |
| 20260830025505 | 72 | 158 | 1.7 | 4.3 | 0.00 | 0.35 | 0.35 | 83 | 1007.9 |
| 20260830025006 | 72 | 156 | 1.7 | 2.6 | 0.00 | 0.35 | 0.35 | 83 | 1008.0 |
| 20260830024506 | 72 | 156 | 0.9 | 5.2 | 0.00 | 0.35 | 0.35 | 83 | 1008.0 |
| 20260830024006 | 72 | 175 | 0.9 | 2.6 | 0.00 | 0.35 | 0.35 | 83 | 1008.0 |
| 20260830023506 | 72 | 148 | 1.7 | 4.3 | 0.00 | 0.35 | 0.35 | 83 | 1008.0 |
| 20260830023005 | 72 | 153 | 0.9 | 2.6 | 0.00 | 0.35 | 0.35 | 83 | 1008.0 |
| 20260830022505 | 72 | 153 | 0.9 | 2.6 | 0.00 | 0.35 | 0.35 | 82 | 1008.0 |
| 20260830021505 | 72 | 153 | 1.7 | 2.6 | 0.00 | 0.35 | 0.35 | 82 | 1007.9 |
| 20260830021006 | 72 | 153 | 1.7 | 5.2 | 0.00 | 0.35 | 0.35 | 82 | 1007.9 |
| 20260830020005 | 72 | 159 | 1.7 | 2.6 | 0.00 | 0.35 | 0.35 | 82 | 1007.9 |
| 20260830015506 | 72 | 159 | 1.7 | 4.3 | 0.00 | 0.35 | 0.35 | 82 | 1007.8 |
| 20260830014506 | 72 | 159 | 1.7 | 2.6 | 0.00 | 0.35 | 0.35 | 81 | 1007.7 |
| 20260830014006 | 72 | 158 | 1.7 | 2.6 | 0.00 | 0.35 | 0.35 | 81 | 1007.6 |
| 20260830013506 | 72 | 153 | 0.9 | 2.6 | 0.00 | 0.35 | 0.35 | 81 | 1007.5 |
| 20260830012506 | 73 | 162 | 1.7 | 2.6 | 0.00 | 0.35 | 0.35 | 80 | 1007.5 |
| 20260830012006 | 73 | 163 | 1.7 | 4.3 | 0.00 | 0.35 | 0.35 | 80 | 1007.4 |
| 20260830011005 | 73 | 175 | 0.9 | 2.6 | 0.00 | 0.35 | 0.35 | 80 | 1007.3 |
| 20260830010005 | 73 | 154 | 1.7 | 4.3 | 0.00 | 0.35 | 0.35 | 79 | 1007.3 |
| 20260830005005 | 73 | 153 | 1.7 | 6.1 | 0.00 | 0.35 | 0.35 | 79 | 1007.3 |
| 20260830004506 | 74 | 169 | 2.6 | 7.0 | 0.00 | 0.35 | 0.35 | 78 | 1007.2 |
| 20260830003505 | 74 | 163 | 2.6 | 7.8 | 0.00 | 0.35 | 0.35 | 78 | 1007.2 |
| 20260830003006 | 74 | 175 | 1.7 | 2.6 | 0.00 | 0.35 | 0.35 | 77 | 1007.2 |
| 20260830002505 | 74 | 169 | 1.7 | 5.2 | 0.00 | 0.35 | 0.35 | 77 | 1007.2 |